Location: B�rgermoos
(47.6500°N, 9.0667°E)
Time: 00:15:51
(UTC+00:00)

Tiros 1 - Pass Details

Date: 06 August 2021
Orbit: 630 x 663 km, 48.4° (Epoch: 19 September)

Event Time Altitude Azimuth Distance (km) Brightness Sun altitude
Rises 16:48:34 0° 251° (WSW) 2,987 11.8 19.0°
Reaches altitude 10° 16:50:55 10° 250° (WSW) 2,074 11.2 18.6°
Maximum altitude 16:55:43 80° 164° (SSE) 671 7.5 17.8°
Drops below altitude 10° 17:00:29 10° 78° (ENE) 2,062 9.2 17.0°
Sets 17:02:49 0° 78° (ENE) 2,969 10.0 16.6°
